Regional Weather Roundup
Issued by NWS

Home | Current Version | Previous Version | Graphics & Text | Print | Product List | Glossary On
Versions: 1 2 3 4 5 6 7 8 9 10 11 12 13 14 15 16 17 18 19 20 21 22 23 24 25 26 27 28 29 30 31 32 33 34 35 36 37 38 39 40 41 42 43 44 45 46 47 48 49
000
ASUS45 KBOU 240907
RWRCO

WEATHER ROUNDUP FOR COLORADO
NATIONAL WEATHER SERVICE DENVER/BOULDER CO
200 AM MST WED DEC 24 2014

NOTE: "FAIR" INDICATES FEW OR NO CLOUDS BELOW 12000 FEET WITH NO
SIGNIFICANT WEATHER AND/OR OBSTRUCTIONS TO VISIBILITY.

COZ001>005-013-030-031-241000-
...NORTHWEST COLORADO...

CITY           SKY/WX    TMP DP  RH WIND       PRES   REMARKS
CRAIG          FAIR       0  -5  79 SW3       30.24F
HAYDEN         FAIR       9   3  78 E10       30.20S WCI  -6
MEEKER         FAIR       5   0  79 CALM      30.23F
MOUNT WERNER   NOT AVBL
STEAMBOAT SPGS CLOUDY     8   4  84 CALM      30.20S
WALDEN         FAIR       1  -6  71 S3        30.12R
$$

COZ006>008-011-241000-
...WEST CENTRAL VALLEYS...

CITY           SKY/WX    TMP DP  RH WIND       PRES   REMARKS
GRAND JUNCTION FAIR      20  15  81 E6        30.27F WCI  12
MONTROSE       FAIR      16   9  74 SE9       30.29S WCI   4
EAGLE          FAIR       0  -4  85 SE5       30.30S WCI -10
RIFLE          FAIR      13   7  77 SE5       30.29S WCI   5
DELTA          FAIR      18  10  70 NE7       30.30S WCI   8
NUCLA          FAIR      19  10  68 CALM      30.27F
$$

COZ017>023-064>068-241000-
...SOUTHWEST COLORADO...

CITY           SKY/WX    TMP DP  RH WIND       PRES   REMARKS
DURANGO        FAIR      14   4  64 N3        30.14F
CORTEZ         FAIR      26   7  44 NW8       30.17F WCI  18
PAGOSA SPRINGS FAIR       7  -3  64 CALM      30.12F
TELLURIDE      FAIR       7   0  74 E3        30.17S
WOLF CREEK PAS FAIR       9 -24  21 MISG      30.03R
$$

COZ009-010-012-014-032>034-037-058>063-241000-
...CENTRAL COLORADO...

CITY           SKY/WX    TMP DP  RH WIND       PRES   REMARKS
ASPEN          FAIR       3  -4  72 SW8       30.19F WCI -10
BUENA VISTA    FAIR      13  -1  54 NW16G28   30.07R WCI  -4
COPPER MTN     FAIR       5  -4  66 W18       30.04R WCI -15
BERTHOUD PASS  NOT AVBL
COTTONWOOD PAS FAIR      16  -8  35 NW10G23   30.00S WCI   3
GUNNISON       FAIR      -9 -13  84 CALM      30.24R
KREMMLING      MOCLDY    10   3  72 CALM      30.21S
LEADVILLE      FAIR      -2  -7  79 N13       30.07S WCI -20
MONARCH PASS     N/A      0  -6  78 MISG      30.09R
SALIDA         FAIR      10  -1  60 W6        30.18R WCI   1
SUNLIGHT         N/A    N/A N/A N/A E55       30.11S
WILKERSON PASS FAIR       9  -4  56 N14G22    29.96R WCI  -8
$$

COZ069>075-241000-
...SAN LUIS VALLEY/SANGRE DE CRISTO MOUNTAINS...

CITY           SKY/WX    TMP DP  RH WIND       PRES   REMARKS
ALAMOSA        FAIR       5  -3  69 W9        30.10S WCI  -9
LA VETA PASS   FAIR       3  -4  72 S7G17     29.97F WCI  -9
SAGUACHE       FAIR      12   1  62 N17       30.09F WCI  -5
$$

COZ035-036-038>040-241000-
...NORTHERN COLORADO FRONT RANGE...

CITY           SKY/WX    TMP DP  RH WIND       PRES   REMARKS
DENVER INTL AP FAIR      19   8  62 S13       30.02F WCI   6
DMNS CITY PARK   N/A     20   5  53 S5G12     30.03F WCI  13
AURORA         PTCLDY    18   6  59 S13       30.02F WCI   4
FRONT RANGE AP FAIR      18  10  73 S16       30.02F WCI   3
ERIE MUNI ARPT   N/A     14   7  74 CALM      30.03S
BOULDER MUN AP FAIR      21  10  63 CALM      30.01F
CENTENNIAL     FAIR      15   4  61 S7        30.02F WCI   5
BROOMFIELD     FAIR      21  10  63 CALM      30.02S
FORT COLLINS   FAIR      19   5  53 S6        30.03F WCI  11
LONGMONT       FAIR      14   6  70 SW3       30.05F
$$

COZ041-046-047-076>085-087-088-241000-
...PIKES PEAK/PALMER DIVIDE AND SOUTHERN FOOTHILLS...

CITY           SKY/WX    TMP DP  RH WIND       PRES   REMARKS
COLO. SPRINGS  FAIR      10   2  69 N7        30.05F WCI  -1
A. F. ACADEMY  FAIR       2  -4  74 N8        30.03F WCI -11
ELLICOTT       NOT AVBL
FALCON         FAIR       8  -1  69 SW8       30.02F WCI  -5
FORT CARSON    FAIR      12   3  69 N5        30.05F WCI   4
LIMON          FAIR      15   8  73 NW13      30.02F WCI   1
MONUMENT HILL  FAIR      12   0  57 SW10      29.99F WCI  -1
TRINIDAD         N/A    N/A N/A N/A MISG      30.10F
$$

COZ042>045-048>051-090-091-241000-
...NORTHEAST COLORADO...

CITY           SKY/WX    TMP DP  RH WIND       PRES   REMARKS
GREELEY ARPT   FAIR       9  -4  56 N3        30.03F
AKRON          FAIR      18  10  71 NW13      30.01F WCI   5
BURLINGTON     FAIR      16  10  77 NW8       30.04F WCI   5
WRAY           FAIR      15  12  89 W9        30.05F WCI   3
STERLING       FAIR      12   9  85 S5        30.05S WCI   4
HOLYOKE        FAIR      19  14  79 W9        30.04F WCI   9
FORT MORGAN    FAIR      15   8  73 W8        30.05S WCI   4
$$

COZ086-089-092>099-241000-
...SOUTHEAST COLORADO...

CITY           SKY/WX    TMP DP  RH WIND       PRES   REMARKS
PUEBLO         FAIR      13   8  81 NW5       30.10F WCI   5
LA JUNTA       FAIR      20  11  68 W14       30.11S WCI   7
LAMAR          FAIR      18  14  84 W6        30.09F WCI  10
SPRINGFIELD      N/A     16  12  84 NW9       30.07F WCI   4
$$



USA.gov is the U.S. government's official web portal to all federal, state and local government web resources and services.